Startpagina
METAR-TAF:

METAR-TAF

Vliegvelden :

K13-a, Nederland

Productieplatform

breedte: 53-13-04N, lengte: 3-13-13E, hoogte: 31 m

Actueel weer

Dit bericht is 54 minuten geleden gemaakt, om 17:55 UTC
Wind 22 kt uit het zuidzuidwesten met uitschieters tot 25 kt
Temperatuur 17°C
Vochtigheid 82%
Druk 1004 hPa

METAR: EHJR 271755Z AUTO 21022G25KT //// ///////// 17/14 Q1004 W17/H13

Tijdstip: 20:49 (18:49 UTC)


TAF: ontbreekt

Waarnemingen en weersverwachtingen van meer dan 4000 vliegvelden (METAR en TAF).

De beschikbare stations zijn de gele en rode punten op de kaart.

Ga met uw muis naar het station om de naam te zien.

Klik dan om waarnemingen en weersverwachtingen te zien.

kaart wijzigen: klik op de groene knoppen met een zwart kruis om in te zoomen, op de groene knop met een streepje om uit te zoomen of op de groene pijlen voor aangrenzende kaarten.


METAR-TAF: